Weather History for Montevideo, MN

Change the Weather History Date:

Thursday, February 27, 2014

  Actual Average Record
Temperature  
Mean Temperature -2 °F -  
Max Temperature 8 °F 35 °F 57 °F (1983)
Min Temperature -13 °F 17 °F -21 °F (1962)
Degree Days  
Heating Degree Days 68    
Moisture  
Dew Point -14 °F    
Average Humidity 62    
Maximum Humidity 78    
Minimum Humidity 44    
Precipitation  
Precipitation 0.00 in - - ()
Sea Level Pressure  
Sea Level Pressure 30.11 in    
Wind  
Wind Speed 11 mph (NE)    
Max Wind Speed 22 mph    
Max Gust Speed 30 mph    
Visibility 10 miles    
Events      
Averages and records for this station are not official NWS values.
T = Trace of Precipitation, MM = Missing Value Source: NWS Daily Summary

Daily Weather History Graph

Daily Weather History Graph

Search for Another Location

Airport:

Trip Planner

Search our weather history database for the weather conditions in past years. The results will help you decide how hot, cold, wet, or windy it might be!

Date:

Astronomy

Feb. 27, 2014 Rise Set
Actual Time 7:04 AM CST 6:07 PM CST
Civil Twilight 6:34 AM CST 6:37 PM CST
Nautical Twilight 6:00 AM CST 7:11 PM CST
Astronomical Twilight 5:26 AM CST 7:45 PM CST
Moon 5:40 AM CST (2/27) 4:32 PM CST (2/27)
Length of Visible Light 12h 02m
Length of Day
11h 03m
Waning Crescent, 4% of the Moon is Illuminated
Feb 27
Waning Crescent
Mar 1
New
Mar 8
First Quarter
Mar 16
Full
Mar 23
Last Quarter

Hourly Weather History & Observations

Time (CST) Temp. Windchill Dew Point Humidity Pressure Visibility Wind Dir Wind Speed Gust Speed Precip Events Conditions
12:14 AM -5.8 °F -29.9 °F -16.6 °F 60% 30.06 in 10.0 mi North 20.7 mph 27.6 mph N/A   Clear
12:34 AM -5.8 °F -30.5 °F -16.6 °F 60% 30.07 in 10.0 mi North 21.9 mph 29.9 mph N/A   Clear
12:54 AM -7.6 °F -32.9 °F -16.6 °F 65% 30.08 in 10.0 mi NNE 21.9 mph 26.5 mph N/A   Clear
1:14 AM -7.6 °F -31.1 °F -18.4 °F 59% 30.09 in 10.0 mi North 18.4 mph 21.9 mph N/A   Clear
1:34 AM -7.6 °F -29.1 °F -18.4 °F 59% 30.10 in 10.0 mi North 15.0 mph 19.6 mph N/A   Clear
1:54 AM -7.6 °F -29.1 °F -18.4 °F 59% 30.11 in 10.0 mi North 15.0 mph 19.6 mph N/A   Clear
2:14 AM -7.6 °F -27.5 °F -18.4 °F 59% 30.11 in 10.0 mi North 12.7 mph - N/A   Clear
2:34 AM -9.4 °F -28.9 °F -18.4 °F 65% 30.12 in 10.0 mi North 11.5 mph - N/A   Clear
2:54 AM -9.4 °F -28.9 °F -18.4 °F 65% 30.12 in 10.0 mi North 11.5 mph - N/A   Clear
3:14 AM -9.4 °F -27.9 °F -18.4 °F 65% 30.13 in 10.0 mi North 10.4 mph - N/A   Clear
3:34 AM -9.4 °F -26.8 °F -18.4 °F 65% 30.14 in 10.0 mi North 9.2 mph - N/A   Clear
3:54 AM -9.4 °F -26.8 °F -20.2 °F 59% 30.14 in 10.0 mi North 9.2 mph - N/A   Clear
4:14 AM -11.2 °F -29.0 °F -20.2 °F 64% 30.15 in 10.0 mi North 9.2 mph - N/A   Clear
4:34 AM -11.2 °F -29.0 °F -18.4 °F 70% 30.15 in 10.0 mi North 9.2 mph - N/A   Clear
4:54 AM -11.2 °F -29.0 °F -18.4 °F 70% 30.16 in 10.0 mi North 9.2 mph - N/A   Clear
5:14 AM -11.2 °F -30.1 °F -18.4 °F 70% 30.17 in 10.0 mi North 10.4 mph - N/A   Clear
5:33 AM -11.2 °F -27.8 °F -20.2 °F 64% 30.18 in 10.0 mi North 8.1 mph - N/A   Clear
5:54 AM -11.2 °F -27.8 °F -20.2 °F 64% 30.18 in 10.0 mi North 8.1 mph - N/A   Clear
6:14 AM -11.2 °F -26.4 °F -20.2 °F 64% 30.18 in 10.0 mi North 6.9 mph - N/A   Clear
6:33 AM -13.0 °F -27.0 °F -20.2 °F 70% 30.19 in 10.0 mi NNW 5.8 mph - N/A   Clear
6:54 AM -13.0 °F -27.0 °F -20.2 °F 70% 30.19 in 10.0 mi NNW 5.8 mph - N/A   Clear
7:14 AM -13.0 °F -30.0 °F -20.2 °F 70% 30.18 in 10.0 mi North 8.1 mph - N/A   Clear
7:34 AM -11.2 °F -26.4 °F -20.2 °F 64% 30.18 in 10.0 mi North 6.9 mph - N/A   Clear
7:54 AM -9.4 °F -24.3 °F -18.4 °F 65% 30.19 in 10.0 mi North 6.9 mph - N/A   Clear
8:14 AM -7.6 °F -22.1 °F -18.4 °F 59% 30.20 in 10.0 mi North 6.9 mph - N/A   Clear
8:34 AM -7.6 °F -24.6 °F -16.6 °F 65% 30.20 in 10.0 mi North 9.2 mph - N/A   Clear
8:54 AM -5.8 °F -19.9 °F -16.6 °F 60% 30.20 in 10.0 mi North 6.9 mph - N/A   Clear
9:14 AM -5.8 °F -22.4 °F -16.6 °F 60% 30.21 in 10.0 mi North 9.2 mph - N/A   Clear
9:34 AM -5.8 °F -21.2 °F -18.4 °F 55% 30.21 in 10.0 mi North 8.1 mph - N/A   Clear
9:54 AM -2.2 °F -14.2 °F -18.4 °F 46% 30.21 in 10.0 mi NNE 5.8 mph - N/A   Clear
10:14 AM -2.2 °F -16.8 °F -16.6 °F 50% 30.20 in 10.0 mi NNE 8.1 mph - N/A   Clear
10:34 AM -2.2 °F -15.6 °F -18.4 °F 46% 30.20 in 10.0 mi NNE 6.9 mph - N/A   Clear
10:54 AM -0.4 °F -12.0 °F -16.6 °F 46% 30.20 in 10.0 mi NNE 5.8 mph - N/A   Clear
11:14 AM -0.4 °F -12.0 °F -14.8 °F 51% 30.20 in 10.0 mi NNE 5.8 mph - N/A   Clear
11:34 AM -0.4 °F -10.4 °F -14.8 °F 51% 30.21 in 10.0 mi NNE 4.6 mph - N/A   Clear
11:54 AM 1.4 °F -12.5 °F -14.8 °F 47% 30.20 in 10.0 mi NE 8.1 mph - N/A   Clear
12:14 PM 1.4 °F - -13.0 °F 51% 30.18 in 10.0 mi Calm Calm - N/A   Clear
12:34 PM 3.2 °F - -11.2 °F 51% 30.17 in 10.0 mi Calm Calm - N/A   Clear
12:54 PM 6.8 °F - -11.2 °F 44% 30.16 in 10.0 mi Calm Calm - N/A   Clear
1:14 PM 6.8 °F - -11.2 °F 44% 30.15 in 10.0 mi Calm Calm - N/A   Clear
1:34 PM 6.8 °F -2.0 °F -9.4 °F 48% 30.14 in 10.0 mi NE 4.6 mph - N/A   Clear
1:54 PM 6.8 °F - -9.4 °F 48% 30.13 in 10.0 mi Calm Calm - N/A   Clear
2:14 PM 6.8 °F - -9.4 °F 48% 30.12 in 10.0 mi Calm Calm - N/A   Clear
2:34 PM 8.6 °F - -9.4 °F 44% 30.12 in 10.0 mi Calm Calm - N/A   Clear
2:54 PM 8.6 °F - -9.4 °F 44% 30.11 in 10.0 mi Calm Calm - N/A   Clear
3:14 PM 6.8 °F -0.1 °F -9.4 °F 48% 30.10 in 10.0 mi SE 3.5 mph - N/A   Clear
3:34 PM 6.8 °F -0.1 °F -9.4 °F 48% 30.10 in 10.0 mi SSE 3.5 mph - N/A   Clear
3:54 PM 5.0 °F -4.1 °F -9.4 °F 52% 30.09 in 10.0 mi SSE 4.6 mph - N/A   Clear
4:14 PM 5.0 °F -5.6 °F -7.6 °F 56% 30.08 in 10.0 mi South 5.8 mph - N/A   Clear
4:34 PM 5.0 °F -5.6 °F -7.6 °F 56% 30.08 in 10.0 mi South 5.8 mph - N/A   Clear
4:54 PM 3.2 °F -6.2 °F -9.4 °F 56% 30.08 in 10.0 mi South 4.6 mph - N/A   Clear
5:14 PM 3.2 °F -9.1 °F -9.4 °F 56% 30.07 in 10.0 mi SW 6.9 mph - N/A   Clear
5:34 PM 1.4 °F -11.3 °F -9.4 °F 61% 30.06 in 10.0 mi South 6.9 mph - N/A   Clear
5:54 PM 1.4 °F -9.9 °F -9.4 °F 61% 30.06 in 10.0 mi South 5.8 mph - N/A   Clear
6:14 PM -0.4 °F -15.7 °F -9.4 °F 66% 30.05 in 10.0 mi SSE 9.2 mph - N/A   Clear
6:34 PM -0.4 °F -17.6 °F -9.4 °F 66% 30.04 in 10.0 mi South 11.5 mph - N/A   Clear
6:54 PM -2.2 °F -18.0 °F -9.4 °F 71% 30.04 in 10.0 mi South 9.2 mph - N/A   Clear
7:14 PM -2.2 °F -18.0 °F -9.4 °F 71% 30.04 in 10.0 mi South 9.2 mph - N/A   Clear
7:34 PM -2.2 °F -20.7 °F -7.6 °F 78% 30.03 in 10.0 mi SSE 12.7 mph - N/A   Clear
7:54 PM -2.2 °F -18.9 °F -9.4 °F 71% 30.03 in 10.0 mi SSE 10.4 mph - N/A   Clear
8:14 PM -4.0 °F -22.1 °F -9.4 °F 78% 30.02 in 10.0 mi South 11.5 mph - N/A   Clear
8:34 PM -4.0 °F -20.2 °F -9.4 °F 78% 30.03 in 10.0 mi South 9.2 mph - N/A   Clear
8:54 PM -5.8 °F -25.2 °F -11.2 °F 77% 30.02 in 10.0 mi South 12.7 mph - N/A   Scattered Clouds
9:14 PM -5.8 °F -24.4 °F -11.2 °F 77% 30.01 in 10.0 mi South 11.5 mph - N/A   Clear
9:34 PM -5.8 °F -25.2 °F -11.2 °F 77% 30.01 in 10.0 mi South 12.7 mph - N/A   Clear
9:54 PM -5.8 °F -24.4 °F -11.2 °F 77% 30.01 in 10.0 mi South 11.5 mph - N/A   Clear
10:14 PM -5.8 °F -22.4 °F -11.2 °F 77% 30.01 in 10.0 mi South 9.2 mph - N/A   Clear
10:34 PM -5.8 °F -21.2 °F -11.2 °F 77% 30.00 in 10.0 mi South 8.1 mph - N/A   Clear
10:54 PM -5.8 °F -23.4 °F -11.2 °F 77% 29.99 in 10.0 mi South 10.4 mph - N/A   Clear
11:14 PM -5.8 °F -24.4 °F -11.2 °F 77% 29.98 in 10.0 mi South 11.5 mph - N/A   Clear
11:34 PM -5.8 °F -24.4 °F -11.2 °F 77% 29.96 in 10.0 mi South 11.5 mph - N/A   Clear
11:54 PM -5.8 °F -25.2 °F -11.2 °F 77% 29.95 in 10.0 mi South 12.7 mph - N/A   Clear